User: anonymous   Login
Location: Castillon
(43.0896°N, 0.2156°E)
Time: 21:02:39
(UTC+00:00)
Language:

FENGYUN 1C DEB - Orbit

View from above orbital plane
View from above orbital plane
View from above satellite
View from above satellite

Ground track
Ground track

The orbit data is extracted from the following two-line orbital elements,

1 30272U 99025YH  22021.44853834  .00000970  00000-0  60943-3 0  9996
2 30272  98.9995  81.7977 0059571 139.9116 220.6470 14.05949513768330
Epoch (UTC): 21 January 2022 10:45:53
Eccentricity: 0.0059571
inclination: 98.9995°
perigee height: 830 km
apogee height: 916 km
right ascension of ascending node: 81.7977°
argument of perigee: 139.9116°
revolutions per day: 14.05949513
mean anomaly at epoch: 220.6470°
orbit number at epoch: 76833

The dashed part of the orbit path shows where the satellite is in the earth's shadow,  

DLR